GW4456 Weather Reports


time (UTC)temp
C
wind
direction
speed
KPH
gust
KPH
rain 1hr
cm
rain 24hr
cm
rain mn
cm
humidity
%
barometer
mb
20260507161203 17 317 4.8 4.8 0.00 0.00 0.00 77
20260507160659 17 354 1.6 4.8 0.00 0.00 0.00 79
20260507160156 17 308 3.2 4.8 0.00 0.00 0.00 79
20260507155651 17 306 3.2 9.7 0.00 0.00 0.00 78
20260507155148 17 80 3.2 9.7 0.00 0.00 0.00 78
20260507154644 17 317 1.6 8.0 0.00 0.00 0.00 80
20260507154142 16 328 0.0 3.2 0.00 0.00 0.00 82
20260507153638 16 9 3.2 3.2 0.00 0.00 0.00 83
20260507153135 17 329 4.8 9.7 0.00 0.00 0.00 81
20260507152631 17 308 3.2 8.0 0.00 0.00 0.00 80
20260507152127 16 212 0.0 4.8 0.00 0.00 0.00 83
20260507151624 16 297 3.2 9.7 0.00 0.00 0.00 84
20260507151121 16 244 3.2 8.0 0.00 0.00 0.00 85
20260507150618 16 219 8.0 9.7 0.00 0.00 0.00 85
20260507150114 16 325 8.0 11.3 0.00 0.00 0.00 85
20260507145609 15 268 0.0 4.8 0.00 0.00 0.00 87
20260507145108 15 283 4.8 4.8 0.00 0.00 0.00 87
20260507144603 15 294 3.2 3.2 0.00 0.00 0.00 88
20260507144102 15 241 0.0 1.6 0.00 0.00 0.00 88
20260507143558 15 233 0.0 1.6 0.00 0.00 0.00 89
20260507143055 15 228 1.6 3.2 0.00 0.00 0.00 89
20260507142555 15 216 1.6 4.8 0.00 0.00 0.00 90
20260507142053 14 256 0.0 1.6 0.00 0.00 0.00 90
20260507141549 14 213 1.6 3.2 0.00 0.00 0.00 91
20260507141046 13 226 3.2 4.8 0.00 0.00 0.00 91
20260507140542 13 223 1.6 4.8 0.00 0.00 0.00 91
20260507140040 13 229 3.2 4.8 0.00 0.00 0.00 90
20260507135536 13 221 3.2 8.0 0.00 0.00 0.00 90
20260507135034 13 224 6.4 9.7 0.00 0.00 0.00 90
20260507134530 13 224 3.2 11.3 0.00 0.00 0.00 90
20260507134026 13 223 4.8 11.3 0.00 0.00 0.00 90
20260507133522 13 219 4.8 8.0 0.00 0.00 0.00 90
20260507133021 13 225 3.2 9.7 0.00 0.00 0.00 90
20260507132517 13 217 8.0 9.7 0.00 0.00 0.00 90
20260507132013 13 213 8.0 9.7 0.00 0.00 0.00 90
20260507131510 13 219 8.0 9.7 0.00 0.00 0.00 91
20260507131007 13 213 6.4 9.7 0.00 0.00 0.00 91
20260507130504 12 214 4.8 4.8 0.00 0.00 0.00 91
20260507130003 12 227 4.8 8.0 0.00 0.00 0.00 91
20260507125501 12 221 3.2 4.8 0.00 0.00 0.00 92
20260507124958 12 222 0.0 1.6 0.00 0.00 0.00 91
20260507124454 12 222 0.0 0.0 0.00 0.00 0.00 91
20260507123952 12 231 0.0 3.2 0.00 0.00 0.00 91
20260507123449 12 218 1.6 1.6 0.00 0.00 0.00 91
20260507122946 12 215 0.0 0.0 0.00 0.00 0.00 90
20260507122441 12 214 0.0 0.0 0.00 0.00 0.00 90
20260507121937 12 214 0.0 0.0 0.00 0.00 0.00 89
20260507121433 13 233 1.6 4.8 0.00 0.00 0.00 90
20260507120930 12 223 3.2 4.8 0.00 0.00 0.00 90
20260507120426 12 237 3.2 3.2 0.00 0.00 0.00 90
20260507115922 12 226 1.6 4.8 0.00 0.00 0.00 91
20260507115418 12 217 3.2 3.2 0.00 0.00 0.00 91
20260507114914 12 229 0.0 0.0 0.00 0.00 0.00 90
20260507114411 12 229 0.0 1.6 0.00 0.00 0.00 90
20260507113908 13 229 0.0 3.2 0.00 0.00 0.00 90
20260507113406 13 215 1.6 4.8 0.00 0.00 0.00 90
20260507112903 13 217 1.6 4.8 0.00 0.00 0.00 90
20260507112400 13 234 4.8 4.8 0.00 0.00 0.00 91
20260507111858 12 222 3.2 3.2 0.00 0.00 0.00 91
20260507111354 12 215 1.6 4.8 0.00 0.00 0.00 92
20260507110850 12 227 1.6 1.6 0.00 0.00 0.00 92
20260507110346 12 225 0.0 0.0 0.00 0.00 0.00 92
20260507105844 12 226 0.0 0.0 0.00 0.00 0.00 92
20260507105340 12 227 0.0 0.0 0.00 0.00 0.00 92
20260507104837 12 227 0.0 0.0 0.00 0.00 0.00 92
20260507104334 12 226 1.6 3.2 0.00 0.00 0.00 92
20260507103829 12 224 0.0 1.6 0.00 0.00 0.00 92
20260507103326 12 224 0.0 0.0 0.00 0.00 0.00 91
20260507102823 13 224 0.0 0.0 0.00 0.00 0.00 91
20260507102319 13 224 0.0 0.0 0.00 0.00 0.00 90
20260507101816 13 240 0.0 3.2 0.00 0.00 0.00 91
20260507101315 13 212 4.8 8.0 0.00 0.00 0.00 92
20260507100813 13 218 3.2 3.2 0.00 0.00 0.00 92
20260507100311 13 232 0.0 1.6 0.00 0.00 0.00 91
20260507095809 13 232 0.0 1.6 0.00 0.00 0.00 91
20260507095306 13 239 1.6 3.2 0.00 0.00 0.00 92
20260507094802 13 249 4.8 4.8 0.00 0.00 0.00 92
20260507094259 13 233 0.0 1.6 0.00 0.00 0.00 91
20260507093756 13 229 0.0 3.2 0.00 0.00 0.00 92
20260507093254 13 219 3.2 3.2 0.00 0.00 0.00 92
20260507092752 13 232 3.2 3.2 0.00 0.00 0.00 92
20260507092248 13 222 1.6 1.6 0.00 0.00 0.00 92
20260507091744 14 229 1.6 1.6 0.00 0.00 0.00 92
20260507091241 13 252 1.6 3.2 0.00 0.00 0.00 91
20260507090736 13 248 0.0 1.6 0.00 0.00 0.00 90
20260507090233 14 250 1.6 3.2 0.00 0.00 0.00 91
20260507085730 14 253 1.6 1.6 0.00 0.00 0.00 91
20260507085227 14 231 3.2 3.2 0.00 0.00 0.00 91
20260507084724 14 242 0.0 0.0 0.00 0.00 0.00 91
20260507084220 14 238 1.6 3.2 0.00 0.00 0.00 91
20260507083718 14 239 1.6 3.2 0.00 0.00 0.00 91
20260507083214 13 240 3.2 3.2 0.00 0.00 0.00 91
20260507082710 14 235 0.0 1.6 0.00 0.00 0.00 91
20260507082207 13 234 1.6 1.6 0.00 0.00 0.00 90
20260507081703 14 255 1.6 3.2 0.00 0.00 0.00 90
20260507081159 14 227 0.0 1.6 0.00 0.00 0.00 90
20260507080656 14 217 1.6 3.2 0.00 0.00 0.00 89
20260507080153 14 223 0.0 4.8 0.00 0.00 0.00 89
20260507075648 14 248 3.2 4.8 0.00 0.00 0.00 88
20260507075144 14 225 6.4 9.7 0.00 0.00 0.00 89
20260507074641 14 221 6.4 8.0 0.00 0.00 0.00 89
20260507074139 14 231 3.2 4.8 0.00 0.00 0.00 90
20260507073635 14 230 1.6 3.2 0.00 0.00 0.00 89
20260507073132 14 227 1.6 1.6 0.00 0.00 0.00 89
20260507072630 14 228 3.2 3.2 0.00 0.00 0.00 89
20260507072127 14 232 1.6 3.2 0.00 0.00 0.00 88
20260507071624 15 244 1.6 3.2 0.00 0.00 0.00 88
20260507071120 15 228 1.6 3.2 0.00 0.00 0.00 89
20260507070617 15 235 1.6 3.2 0.00 0.00 0.00 89
20260507070114 15 242 1.6 1.6 0.00 0.00 0.00 88
20260507065611 15 246 1.6 4.8 0.00 0.00 0.00 89
20260507065108 15 256 1.6 3.2 0.00 0.00 0.00 89
20260507064606 15 238 1.6 3.2 0.00 0.00 0.00 88
20260507064104 15 222 3.2 3.2 0.00 0.00 0.00 88
20260507063601 15 232 1.6 3.2 0.00 0.00 0.00 88
20260507063058 15 244 1.6 3.2 0.00 0.00 0.00 88
20260507062554 15 239 3.2 3.2 0.00 0.00 0.00 87
20260507062052 15 249 1.6 1.6 0.00 0.00 0.00 87
20260507061550 15 237 1.6 3.2 0.00 0.00 0.00 86
20260507061048 15 243 3.2 3.2 0.00 0.00 0.00 86
20260507060545 15 251 1.6 3.2 0.00 0.00 0.00 87
20260507060042 15 239 1.6 1.6 0.00 0.00 0.00 85
20260507055537 15 252 3.2 3.2 0.00 0.00 0.00 85
20260507055033 15 256 1.6 3.2 0.00 0.00 0.00 85
20260507054530 15 255 1.6 3.2 0.00 0.00 0.00 85
20260507054027 15 259 3.2 3.2 0.00 0.00 0.00 85
20260507053525 15 264 1.6 1.6 0.00 0.00 0.00 85
20260507053023 15 265 1.6 1.6 0.00 0.00 0.00 85
20260507052520 15 265 1.6 1.6 0.00 0.00 0.00 85
20260507052017 15 261 1.6 3.2 0.00 0.00 0.00 85
20260507051515 15 286 0.0 0.0 0.00 0.00 0.00 85
20260507051011 15 285 0.0 1.6 0.00 0.00 0.00 85
20260507050508 15 300 0.0 1.6 0.00 0.00 0.00 84
20260507050005 15 300 0.0 0.0 0.00 0.00 0.00 84
20260507045501 15 300 0.0 1.6 0.00 0.00 0.00 83
20260507044959 15 325 1.6 3.2 0.00 0.00 0.00 83
20260507044455 15 316 4.8 8.0 0.00 0.00 0.00 83
20260507043951 15 278 1.6 3.2 0.00 0.00 0.00 83
20260507043448 15 303 0.0 1.6 0.00 0.00 0.00 83
20260507042944 15 318 1.6 1.6 0.00 0.00 0.00 83
20260507042441 15 292 0.0 1.6 0.00 0.00 0.00 83
20260507041937 15 297 1.6 3.2 0.00 0.00 0.00 83
20260507041433 15 272 1.6 1.6 0.00 0.00 0.00 83
20260507040931 15 299 0.0 0.0 0.00 0.00 0.00 83
20260507040431 15 295 1.6 1.6 0.00 0.00 0.00 83
20260507035927 16 297 0.0 1.6 0.00 0.00 0.00 83
20260507035424 16 302 1.6 1.6 0.00 0.00 0.00 83
20260507034921 16 303 0.0 3.2 0.00 0.00 0.00 83
20260507034418 16 335 1.6 3.2 0.00 0.00 0.00 83
20260507033916 16 12 3.2 4.8 0.00 0.00 0.00 83
20260507033414 16 31 3.2 3.2 0.00 0.00 0.00 83
20260507032911 16 4 4.8 4.8 0.00 0.00 0.00 83
20260507032407 16 322 1.6 3.2 0.00 0.00 0.00 83
20260507031903 16 318 1.6 1.6 0.00 0.00 0.00 83
20260507031400 16 292 1.6 1.6 0.00 0.00 0.00 83
20260507030857 16 334 1.6 3.2 0.00 0.00 0.00 82
20260507030354 16 294 1.6 3.2 0.00 0.00 0.00 81
20260507025851 16 313 1.6 1.6 0.00 0.00 0.00 81
20260507025348 16 325 0.0 1.6 0.00 0.00 0.00 81
20260507024846 16 302 1.6 3.2 0.00 0.00 0.00 81
20260507024343 16 266 3.2 4.8 0.00 0.00 0.00 81
20260507023839 16 283 4.8 8.0 0.00 0.00 0.00 81
20260507023336 17 309 3.2 3.2 0.00 0.00 0.00 80
20260507022833 17 330 3.2 3.2 0.00 0.00 0.00 79
20260507022330 17 316 4.8 4.8 0.00 0.00 0.00 77
20260507021825 17 0 4.8 4.8 0.00 0.00 0.00 77
20260507021321 17 339 4.8 9.7 0.00 0.00 0.00 76
20260507020819 17 347 3.2 4.8 0.00 0.00 0.00 75
20260507020315 18 342 1.6 4.8 0.00 0.00 0.00 73
20260507015813 18 39 1.6 3.2 0.00 0.00 0.00 71
20260507015310 18 327 4.8 8.0 0.00 0.00 0.00 71
20260507014807 18 340 4.8 8.0 0.00 0.00 0.00 70
20260507014304 18 313 3.2 9.7 0.00 0.00 0.00 70
20260507013800 18 329 1.6 9.7 0.00 0.00 0.00 69
20260507013258 18 350 6.4 12.9 0.00 0.00 0.00 67
20260507012755 19 47 6.4 9.7 0.00 0.00 0.00 64
20260507012250 19 341 8.0 11.3 0.00 0.00 0.00 62
20260507011748 19 345 9.7 11.3 0.00 0.00 0.00 60
20260507011244 20 335 4.8 11.3 0.00 0.00 0.00 59
20260507010744 20 327 3.2 9.7 0.00 0.00 0.00 59
20260507010240 20 33 8.0 12.9 0.00 0.00 0.00 59
20260507005738 20 6 4.8 9.7 0.00 0.00 0.00 57
20260507005234 20 323 4.8 11.3 0.00 0.00 0.00 54
20260507004730 20 39 8.0 12.9 0.00 0.00 0.00 55
20260507004229 20 25 11.3 12.9 0.00 0.00 0.00 56
20260507003724 20 338 8.0 14.5 0.00 0.00 0.00 54
20260507003220 20 328 8.0 11.3 0.00 0.00 0.00 54
20260507002716 20 58 9.7 14.5 0.00 0.00 0.00 54
20260507002212 20 319 9.7 16.1 0.00 0.00 0.00 55
20260507001709 20 323 9.7 20.9 0.00 0.00 0.00 58
20260507001206 20 306 11.3 14.5 0.00 0.00 0.00 56
20260507000702 20 324 6.4 17.7 0.00 0.00 0.00 57
20260507000158 20 23 6.4 11.3 0.00 0.00 0.00 60
20260506235655 21 301 9.7 14.5 0.00 0.00 0.00 58
20260506235151 20 12 11.3 16.1 0.00 0.00 0.00 63
20260506234648 20 315 9.7 12.9 0.00 0.00 0.00 62
20260506234145 20 354 4.8 14.5 0.00 0.00 0.00 60
20260506233642 20 4 8.0 14.5 0.00 0.00 0.00 61
20260506233139 20 343 4.8 16.1 0.00 0.00 0.00 61
20260506232635 20 334 11.3 14.5 0.00 0.00 0.00 63
20260506232131 20 351 11.3 12.9 0.00 0.00 0.00 60
20260506231628 20 344 4.8 11.3 0.00 0.00 0.00 64
20260506231126 20 322 9.7 22.5 0.00 0.00 0.00 65
20260506230623 20 72 9.7 11.3 0.00 0.00 0.00 62
20260506230120 20 295 6.4 14.5 0.00 0.00 0.00 63
20260506225616 20 49 9.7 14.5 0.00 0.00 0.00 64
20260506225113 20 19 8.0 16.1 0.00 0.00 0.00 63
20260506224610 20 318 11.3 14.5 0.00 0.00 0.00 63
20260506224106 20 339 11.3 14.5 0.00 0.00 0.00 65
20260506223602 20 342 12.9 17.7 0.00 0.00 0.00 65
20260506223059 20 343 14.5 20.9 0.00 0.00 0.00 64
20260506222556 20 315 8.0 16.1 0.00 0.00 0.00 64
20260506222052 20 80 6.4 17.7 0.00 0.00 0.00 64
20260506221550 20 336 6.4 14.5 0.00 0.00 0.00 65
20260506221048 20 47 6.4 16.1 0.00 0.00 0.00 64
20260506220543 20 61 8.0 17.7 0.00 0.00 0.00 67
20260506220039 20 47 4.8 14.5 0.00 0.00 0.00 65
20260506215536 20 32 16.1 20.9 0.00 0.00 0.00 64
20260506215032 20 4 14.5 17.7 0.00 0.00 0.00 64
20260506214529 21 11 11.3 16.1 0.00 0.00 0.00 57
20260506214026 20 355 6.4 22.5 0.00 0.00 0.00 64
20260506213524 20 352 6.4 17.7 0.00 0.00 0.00 65
20260506213021 20 351 12.9 20.9 0.00 0.00 0.00 64
20260506212517 20 31 6.4 16.1 0.00 0.00 0.00 62
20260506212013 20 2 8.0 16.1 0.00 0.00 0.00 62
20260506211509 20 346 9.7 14.5 0.00 0.00 0.00 62
20260506211006 20 9 9.7 12.9 0.00 0.00 0.00 62
20260506210502 20 332 9.7 16.1 0.00 0.00 0.00 62
20260506205959 20 308 11.3 16.1 0.00 0.00 0.00 61
20260506205455 20 314 14.5 16.1 0.00 0.00 0.00 62
20260506204952 20 19 11.3 14.5 0.00 0.00 0.00 62
20260506204450 20 348 11.3 17.7 0.00 0.00 0.00 62
20260506203947 20 325 8.0 14.5 0.00 0.00 0.00 62
20260506203444 20 20 11.3 17.7 0.00 0.00 0.00 62
20260506202941 21 89 12.9 14.5 0.00 0.00 0.00 59
20260506202438 21 4 6.4 14.5 0.00 0.00 0.00 59
20260506201934 20 300 11.3 14.5 0.00 0.00 0.00 60
20260506201432 20 342 4.8 12.9 0.00 0.00 0.00 61
20260506200928 20 85 8.0 14.5 0.00 0.00 0.00 61
20260506200425 20 342 6.4 20.9 0.00 0.00 0.00 60
20260506195921 21 5 6.4 14.5 0.00 0.00 0.00 60
20260506195418 20 322 6.4 14.5 0.00 0.00 0.00 61
20260506194915 20 17 9.7 17.7 0.00 0.00 0.00 61
20260506194412 20 315 6.4 20.9 0.00 0.00 0.00 62
20260506193909 20 9 4.8 12.9 0.00 0.00 0.00 63
20260506193406 20 22 9.7 14.5 0.00 0.00 0.00 60
20260506192902 21 352 6.4 12.9 0.00 0.00 0.00 60
20260506192359 20 343 6.4 12.9 0.00 0.00 0.00 60
20260506191856 20 315 8.0 16.1 0.00 0.00 0.00 62
20260506191352 21 29 4.8 11.3 0.00 0.00 0.00 60
20260506190849 20 7 8.0 11.3 0.00 0.00 0.00 61
20260506190345 21 331 4.8 12.9 0.00 0.00 0.00 59
20260506185843 20 6 4.8 11.3 0.00 0.00 0.00 59
20260506185340 20 313 8.0 14.5 0.00 0.00 0.00 60
20260506184831 20 288 11.3 12.9 0.00 0.00 0.00 59
20260506184328 20 124 8.0 12.9 0.00 0.00 0.00 60
20260506183826 20 44 9.7 16.1 0.00 0.00 0.00 60
20260506183321 20 42 4.8 12.9 0.00 0.00 0.00 59
20260506182819 20 268 1.6 9.7 0.00 0.00 0.00 59
20260506182315 20 322 3.2 9.7 0.00 0.00 0.00 62
20260506181813 20 73 11.3 12.9 0.00 0.00 0.00 59
20260506181310 20 329 6.4 16.1 0.00 0.00 0.00 61
20260506180807 20 343 8.0 14.5 0.00 0.00 0.00 57
20260506180303 20 16 4.8 8.0 0.00 0.00 0.00 60
20260506175754 20 53 8.0 9.7 0.00 0.00 0.00 58
20260506175251 20 90 8.0 11.3 0.00 0.00 0.00 60
20260506174749 20 319 6.4 8.0 0.00 0.00 0.00 60
20260506174245 20 136 6.4 11.3 0.00 0.00 0.00 61
20260506173743 20 323 9.7 11.3 0.00 0.00 0.00 57
20260506173240 20 287 1.6 8.0 0.00 0.00 0.00 59
20260506172737 19 320 1.6 3.2 0.00 0.00 0.00 59
20260506172233 19 53 1.6 11.3 0.00 0.00 0.00 57
20260506171731 18 62 3.2 4.8 0.00 0.00 0.00 59
20260506171228 18 94 9.7 11.3 0.00 0.00 0.00 62
20260506170725 18 126 4.8 9.7 0.00 0.00 0.00 63
20260506170216 18 42 6.4 11.3 0.00 0.00 0.00 64
20260506165715 17 155 3.2 8.0 0.00 0.00 0.00 64
20260506165211 17 82 8.0 11.3 0.00 0.00 0.00 65
20260506164709 18 70 11.3 12.9 0.00 0.00 0.00 65
20260506164206 18 53 4.8 8.0 0.00 0.00 0.00 65
20260506163702 18 46 8.0 11.3 0.00 0.00 0.00 66
20260506163157 18 88 4.8 8.0 0.00 0.00 0.00 67
20260506162653 17 25 3.2 4.8 0.00 0.00 0.00 67
20260506162151 17 330 1.6 8.0 0.00 0.00 0.00 68
20260506161648 17 32 6.4 8.0 0.00 0.00 0.00 67